• In Belarus
  • List of Countries
  • For 7 days
  • Water Temperature
  • Weather Map
  • Weather Widgets
  • user-avatar
    Login

    Hourly Weather Hrazdan

    Today, 16 September, Monday

    Time Temperature Precipitation Wind Pressure Humidity
    00:00 +12°C° 0.3 mm 2 mps 616 mmHg 85%
    01:00 +12°C° 0.6 mm 2 mps 616 mmHg 85%
    02:00 +12°C° 0.6 mm 1 mps 616 mmHg 86%
    03:00 +12°C° 0 mm 2 mps 615 mmHg 85%
    04:00 +12°C° 0.5 mm 2 mps 615 mmHg 86%
    05:00 +10°C° 0.5 mm 2 mps 615 mmHg 88%
    06:00 +10°C° 0.5 mm 2 mps 615 mmHg 89%
    07:00 +13°C° 0.1 mm 2 mps 616 mmHg 83%
    08:00 +15°C° 0.1 mm 2 mps 616 mmHg 77%
    09:00 +17°C° 0.1 mm 2 mps 616 mmHg 72%
    10:00 +18°C° 0 mm 3 mps 616 mmHg 69%
    11:00 +19°C° 0 mm 3 mps 616 mmHg 66%
    12:00 +19°C° 0 mm 3 mps 616 mmHg 63%
    13:00 +20°C° 0.1 mm 3 mps 616 mmHg 62%
    14:00 +20°C° 0.1 mm 3 mps 615 mmHg 60%
    15:00 +20°C° 0.1 mm 3 mps 615 mmHg 59%
    16:00 +18°C° 0 mm 3 mps 614 mmHg 66%
    17:00 +17°C° 0 mm 2 mps 614 mmHg 73%
    18:00 +15°C° 0 mm 2 mps 613 mmHg 80%
    19:00 +15°C° 0 mm 2 mps 613 mmHg 81%
    20:00 +14°C° 0 mm 2 mps 613 mmHg 82%
    21:00 +14°C° 0 mm 2 mps 614 mmHg 83%
    22:00 +13°C° 0 mm 2 mps 613 mmHg 82%
    23:00 +13°C° 0 mm 1 mps 613 mmHg 80%

    Tomorrow, 17 September, Tuesday

    Time Temperature Precipitation Wind Pressure Humidity
    00:00 +13°C° 0 mm 1 mps 613 mmHg 79%
    01:00 +13°C° 0 mm 1 mps 613 mmHg 75%
    02:00 +13°C° 0 mm 1 mps 613 mmHg 72%
    03:00 +13°C° 0 mm 2 mps 613 mmHg 69%
    04:00 +13°C° 0 mm 2 mps 612 mmHg 68%
    05:00 +12°C° 0 mm 2 mps 612 mmHg 68%
    06:00 +12°C° 0 mm 2 mps 612 mmHg 67%
    07:00 +13°C° 0 mm 3 mps 613 mmHg 61%
    08:00 +17°C° 0 mm 3 mps 614 mmHg 54%
    09:00 +19°C° 0 mm 4 mps 615 mmHg 47%
    10:00 +20°C° 0 mm 5 mps 615 mmHg 45%
    11:00 +20°C° 0 mm 6 mps 615 mmHg 42%
    12:00 +21°C° 0 mm 6 mps 615 mmHg 40%
    13:00 +21°C° 0 mm 6 mps 614 mmHg 38%
    14:00 +22°C° 0 mm 5 mps 614 mmHg 36%
    15:00 +22°C° 0 mm 5 mps 614 mmHg 34%
    16:00 +21°C° 0 mm 4 mps 613 mmHg 38%
    17:00 +19°C° 0 mm 3 mps 613 mmHg 43%
    18:00 +18°C° 0 mm 2 mps 612 mmHg 47%
    19:00 +16°C° 0.2 mm 2 mps 613 mmHg 54%
    20:00 +15°C° 0.2 mm 2 mps 613 mmHg 61%
    21:00 +14°C° 0.2 mm 2 mps 613 mmHg 69%
    22:00 +13°C° 0 mm 2 mps 613 mmHg 67%
    23:00 +13°C° 0 mm 2 mps 613 mmHg 65%

    Day after tomorrow, 18 September, Wednesday

    Time Temperature Precipitation Wind Pressure Humidity
    00:00 +13°C° 0 mm 2 mps 613 mmHg 63%
    01:00 +13°C° 0 mm 2 mps 613 mmHg 62%
    02:00 +12°C° 0 mm 2 mps 613 mmHg 62%
    03:00 +12°C° 0 mm 2 mps 613 mmHg 62%
    04:00 +12°C° 0 mm 2 mps 613 mmHg 63%
    05:00 +12°C° 0 mm 2 mps 613 mmHg 64%
    06:00 +10°C° 0 mm 2 mps 614 mmHg 65%
    07:00 +14°C° 0 mm 2 mps 615 mmHg 58%
    08:00 +16°C° 0 mm 2 mps 616 mmHg 51%
    09:00 +18°C° 0 mm 2 mps 617 mmHg 44%
    10:00 +19°C° 0 mm 2 mps 617 mmHg 42%
    11:00 +20°C° 0 mm 2 mps 617 mmHg 39%
    12:00 +21°C° 0 mm 2 mps 617 mmHg 36%
    13:00 +21°C° 0 mm 2 mps 617 mmHg 35%
    14:00 +23°C° 0 mm 2 mps 617 mmHg 34%
    15:00 +23°C° 0 mm 2 mps 617 mmHg 33%
    16:00 +20°C° 0 mm 2 mps 616 mmHg 39%
    17:00 +19°C° 0 mm 1 mps 615 mmHg 45%
    18:00 +16°C° 0 mm 1 mps 615 mmHg 51%
    19:00 +16°C° 0 mm 1 mps 615 mmHg 52%
    20:00 +15°C° 0 mm 1 mps 615 mmHg 52%
    21:00 +14°C° 0 mm 1 mps 615 mmHg 53%
    22:00 +14°C° 0 mm 1 mps 615 mmHg 53%
    23:00 +14°C° 0 mm 1 mps 615 mmHg 53%

    19 September, Thursday

    Time Temperature Precipitation Wind Pressure Humidity
    00:00 +14°C° 0 mm 1 mps 615 mmHg 53%
    01:00 +13°C° 0 mm 1 mps 614 mmHg 53%
    02:00 +13°C° 0 mm 1 mps 614 mmHg 53%
    03:00 +13°C° 0 mm 1 mps 614 mmHg 52%
    04:00 +13°C° 0 mm 1 mps 614 mmHg 53%
    05:00 +13°C° 0 mm 1 mps 614 mmHg 53%
    06:00 +12°C° 0 mm 1 mps 614 mmHg 53%
    07:00 +15°C° 0 mm 1 mps 615 mmHg 48%
    08:00 +18°C° 0 mm 1 mps 616 mmHg 43%
    09:00 +19°C° 0 mm 0 mps 617 mmHg 39%
    10:00 +22°C° 0 mm 1 mps 617 mmHg 35%
    11:00 +23°C° 0 mm 2 mps 617 mmHg 32%
    12:00 +24°C° 0 mm 2 mps 617 mmHg 29%
    13:00 +24°C° 0 mm 3 mps 617 mmHg 29%
    14:00 +24°C° 0 mm 3 mps 617 mmHg 29%
    15:00 +24°C° 0 mm 3 mps 616 mmHg 28%
    16:00 +21°C° 0 mm 2 mps 616 mmHg 36%
    17:00 +19°C° 0 mm 2 mps 615 mmHg 43%
    18:00 +18°C° 0 mm 1 mps 614 mmHg 50%
    19:00 +16°C° 0 mm 1 mps 614 mmHg 53%
    20:00 +15°C° 0 mm 2 mps 614 mmHg 56%
    21:00 +14°C° 0 mm 2 mps 614 mmHg 58%
    22:00 +14°C° 0 mm 2 mps 614 mmHg 58%
    23:00 +13°C° 0 mm 2 mps 614 mmHg 58%

    20 September, Friday

    Time Temperature Precipitation Wind Pressure Humidity
    00:00 +13°C° 0 mm 2 mps 614 mmHg 58%
    01:00 +13°C° 0 mm 2 mps 613 mmHg 59%
    02:00 +12°C° 0 mm 2 mps 613 mmHg 59%
    03:00 +12°C° 0 mm 2 mps 613 mmHg 60%
    04:00 +11°C° 0 mm 1 mps 613 mmHg 61%
    05:00 +11°C° 0 mm 1 mps 612 mmHg 62%
    06:00 +11°C° 0 mm 1 mps 612 mmHg 63%
    07:00 +13°C° 0 mm 1 mps 613 mmHg 57%
    08:00 +16°C° 0 mm 1 mps 614 mmHg 52%
    09:00 +19°C° 0 mm 1 mps 615 mmHg 46%
    10:00 +19°C° 0 mm 2 mps 615 mmHg 41%
    11:00 +21°C° 0 mm 3 mps 615 mmHg 36%
    12:00 +22°C° 0 mm 3 mps 615 mmHg 31%
    13:00 +24°C° 0 mm 3 mps 614 mmHg 30%
    14:00 +23°C° 0 mm 4 mps 614 mmHg 29%
    15:00 +23°C° 0 mm 4 mps 613 mmHg 28%
    16:00 +21°C° 0 mm 3 mps 612 mmHg 34%
    17:00 +19°C° 0 mm 2 mps 611 mmHg 40%
    18:00 +18°C° 0 mm 1 mps 610 mmHg 46%
    19:00 +18°C° 0 mm 1 mps 610 mmHg 46%
    20:00 +16°C° 0 mm 1 mps 610 mmHg 46%
    21:00 +16°C° 0 mm 1 mps 610 mmHg 46%
    22:00 +16°C° 0 mm 1 mps 610 mmHg 47%
    23:00 +15°C° 0 mm 1 mps 610 mmHg 48%

    21 September, Saturday

    Time Temperature Precipitation Wind Pressure Humidity
    00:00 +15°C° 0 mm 2 mps 610 mmHg 49%
    01:00 +15°C° 0 mm 2 mps 610 mmHg 53%
    02:00 +14°C° 0 mm 1 mps 609 mmHg 56%
    03:00 +13°C° 0 mm 1 mps 609 mmHg 60%
    04:00 +13°C° 0 mm 2 mps 609 mmHg 66%
    05:00 +12°C° 0 mm 2 mps 608 mmHg 72%
    06:00 +10°C° 0 mm 2 mps 608 mmHg 77%
    07:00 +13°C° 0 mm 2 mps 609 mmHg 69%
    08:00 +15°C° 0 mm 2 mps 610 mmHg 61%
    09:00 +17°C° 0 mm 2 mps 611 mmHg 53%
    10:00 +18°C° 0 mm 3 mps 611 mmHg 48%
    11:00 +19°C° 0 mm 5 mps 611 mmHg 42%
    12:00 +20°C° 0 mm 6 mps 612 mmHg 36%
    13:00 +20°C° 0.1 mm 6 mps 611 mmHg 38%
    14:00 +20°C° 0.1 mm 5 mps 611 mmHg 41%
    15:00 +19°C° 0.1 mm 5 mps 611 mmHg 43%
    16:00 +17°C° 0 mm 4 mps 610 mmHg 54%
    17:00 +14°C° 0 mm 3 mps 610 mmHg 64%
    18:00 +11°C° 0 mm 3 mps 610 mmHg 75%
    19:00 +10°C° 0 mm 2 mps 610 mmHg 77%
    20:00 +9°C° 0 mm 2 mps 611 mmHg 79%
    21:00 +8°C° 0 mm 2 mps 611 mmHg 81%
    22:00 +8°C° 0 mm 2 mps 611 mmHg 81%
    23:00 +8°C° 0 mm 1 mps 611 mmHg 80%
    Show more